OneWeb SL0532

operational
NORAD ID: 55140 Int'l Des: 2023-004 Owner: ONEWEBN Country: UK Constellation: oneweb
LEOCIRCULARPOLARONEWEB_TYPE

关于 OneWeb SL0532

正在加载描述...

实时位置

正在加载3D地球...

即将过境

高度历史

Altitude vs Time

uPlot chart will show altitude changes over time

两行轨道根数

1 55140U 23004A 25258.44815016 .00000085 00000-0 18588-3 0 9991
2 55140 87.9053 60.5042 0002177 95.7942 264.3438 13.17651684131400
Epoch: Sep 15, 2025 • Age: 15 hours

当前状态

高度 1205.9 km
速度 7.26 km/s
星下点 87.74°N, 151.15°E
发射日期 Jan 10, 2023
运行时间 2.6 years
类型 internet

技术详情

分类 Payload
质量 148.00 kg
干质量 140.00 kg
总质量 148.00 kg
长度 1.30 m
直径 1.00 m
跨度 5.00 m
形状 Trapezoid+2 pan
制造商 ONEWUS
平台类型 ARROW
阶段状态 In Orbit
所有者/国家 ONEWEBN/UK

大型星座

Loading constellations...